Orbital Elements at Epoch 2459000.5 (2020-May-31.0) TDB
Reference: JPL 17 (heliocentric ecliptic J2000)
Element | Value | Uncertainty (1-sigma) | Units |
e | .01033209697791178 | 3.7412e-08 | |
a | 3.197617670161954 | 2.5541e-08 | au |
q | 3.164579574295556 | 1.1284e-07 | au |
i | 7.451403661517439 | 4.2969e-06 | deg |
node | 222.4683346350561 | 2.8948e-05 | deg |
peri | 244.1838796937706 | 0.00022953 | deg |
M | 138.9709992708196 | 0.00023017 | deg |
tp | 2458194.268227325813 (2018-Mar-16.76822733) | 0.0013313 | TDB |
period | 2088.518033874793 5.72 | 2.5023e-05 6.851e-08 | d yr |
n | .1723710277627328 | 2.0652e-09 | deg/d |
Q | 3.230655766028351 | 2.5805e-08 | au |
|
| | Orbit Determination Parameters
Additional Information
|